TimeMST,TemperatureF,Dew PointF,Humidity,Sea Level PressureIn,VisibilityMPH,Wind Direction,Wind SpeedMPH,Gust SpeedMPH,PrecipitationIn,Events,Conditions,WindDirDegrees,DateUTC
12:56 AM,-5.1,-9.9,80,30.56,-9999.0,Calm,Calm,-,0.02,,Unknown,0,2013-01-15 07:56:00
1:56 AM,-6.0,-9.9,83,30.56,-9999.0,Calm,Calm,-,N/A,,Unknown,0,2013-01-15 08:56:00
2:56 AM,-6.0,-9.9,83,30.55,-9999.0,Calm,Calm,-,N/A,,Unknown,0,2013-01-15 09:56:00
3:56 AM,-6.0,-9.9,83,30.57,-9999.0,Calm,Calm,-,N/A,,Unknown,0,2013-01-15 10:56:00
4:56 AM,-6.0,-11.0,79,30.61,-9999.0,Calm,Calm,-,N/A,,Unknown,0,2013-01-15 11:56:00
5:56 AM,-7.1,-11.9,79,30.64,-9999.0,Calm,Calm,-,N/A,,Unknown,0,2013-01-15 12:56:00
6:56 AM,-5.1,-9.9,80,30.64,-9999.0,Calm,Calm,-,N/A,,Unknown,0,2013-01-15 13:56:00
7:56 AM,-4.0,-9.0,79,30.65,-9999.0,Calm,Calm,-,0.01,,Unknown,0,2013-01-15 14:56:00
8:56 AM,-2.9,-7.1,82,30.66,-9999.0,Calm,Calm,-,N/A,,Unknown,0,2013-01-15 15:56:00
9:56 AM,-2.0,-7.1,79,30.66,-9999.0,Calm,Calm,-,N/A,,Unknown,0,2013-01-15 16:56:00
10:56 AM,1.9,-4.0,76,30.65,-9999.0,Variable,4.6,-,N/A,,Unknown,0,2013-01-15 17:56:00
11:56 AM,1.9,-2.9,80,30.66,-9999.0,SSW,3.5,-,N/A,,Unknown,210,2013-01-15 18:56:00
12:56 PM,3.9,-0.9,80,30.64,-9999.0,Calm,Calm,-,N/A,,Unknown,0,2013-01-15 19:56:00
1:56 PM,6.1,-0.0,76,30.65,-9999.0,Calm,Calm,-,N/A,,Unknown,0,2013-01-15 20:56:00
2:56 PM,5.0,-0.0,80,30.68,-9999.0,Variable,3.5,-,N/A,,Unknown,0,2013-01-15 21:56:00
3:56 PM,5.0,-0.0,80,30.69,-9999.0,Calm,Calm,-,N/A,,Unknown,0,2013-01-15 22:56:00
4:56 PM,5.0,-0.0,80,30.71,-9999.0,Calm,Calm,-,N/A,,Unknown,0,2013-01-15 23:56:00
5:56 PM,5.0,-0.0,80,30.72,-9999.0,Calm,Calm,-,N/A,,Unknown,0,2013-01-16 00:56:00
6:56 PM,5.0,-0.0,80,30.72,-9999.0,Calm,Calm,-,N/A,,Unknown,0,2013-01-16 01:56:00
7:56 PM,5.0,1.0,84,30.71,-9999.0,Calm,Calm,-,N/A,,Unknown,0,2013-01-16 02:56:00
8:56 PM,5.0,1.0,84,30.71,-9999.0,Calm,Calm,-,N/A,,Unknown,0,2013-01-16 03:56:00
9:56 PM,5.0,1.0,84,30.72,-9999.0,West,3.5,-,N/A,,Unknown,280,2013-01-16 04:56:00
10:56 PM,5.0,1.9,87,30.70,-9999.0,Calm,Calm,-,N/A,,Unknown,0,2013-01-16 05:56:00
11:56 PM,5.0,1.9,87,30.71,-9999.0,Calm,Calm,-,N/A,,Unknown,0,2013-01-16 06:56:00